Time,TemperatureF,DewpointF,PressureIn,WindDirection,WindDirectionDegrees,WindSpeedMPH,WindSpeedGustMPH,Humidity,HourlyPrecipIn,Conditions,Clouds,dailyrainin,SoftwareType,DateUTC
2013-04-04 00:00:00,69.4,64.7,29.88,SSE,150,0.0,1.0,85,0.00,,,0.14,Wunderground v.1.15,2013-04-04 04:00:00,
2013-04-04 00:01:00,69.6,64.9,29.88,SSE,150,0.0,1.0,85,0.00,,,0.00,Wunderground v.1.15,2013-04-04 04:01:00,
2013-04-04 00:06:00,69.6,64.9,29.88,SSE,150,0.0,1.0,85,0.00,,,0.00,Wunderground v.1.15,2013-04-04 04:06:00,
2013-04-04 00:12:00,69.6,64.9,29.88,NE,48,0.0,0.0,85,0.00,,,0.00,Wunderground v.1.15,2013-04-04 04:12:00,
2013-04-04 00:17:00,69.6,64.9,29.89,North,0,0.0,0.0,85,0.00,,,0.00,Wunderground v.1.15,2013-04-04 04:17:00,
2013-04-04 00:22:00,69.6,64.9,29.89,North,6,0.0,1.0,85,0.00,,,0.00,Wunderground v.1.15,2013-04-04 04:22:00,
2013-04-04 00:28:00,69.6,64.9,29.89,North,0,0.0,5.0,85,0.00,,,0.00,Wunderground v.1.15,2013-04-04 04:28:00,
2013-04-04 00:33:00,69.6,64.9,29.89,North,1,0.0,0.0,85,0.00,,,0.00,Wunderground v.1.15,2013-04-04 04:33:00,
2013-04-04 00:39:00,69.3,64.6,29.89,NNE,23,0.0,0.0,85,0.00,,,0.00,Wunderground v.1.15,2013-04-04 04:39:00,
2013-04-04 00:44:00,69.1,64.4,29.87,NNE,23,0.0,0.0,85,0.00,,,0.00,Wunderground v.1.15,2013-04-04 04:44:00,
2013-04-04 00:50:00,68.9,64.2,29.87,NNE,23,0.0,1.0,85,0.00,,,0.00,Wunderground v.1.15,2013-04-04 04:50:00,
2013-04-04 00:55:00,68.8,64.4,29.87,NNE,23,0.0,3.0,86,0.00,,,0.00,Wunderground v.1.15,2013-04-04 04:55:00,
2013-04-04 01:01:00,68.6,64.2,29.87,NNE,24,0.0,0.0,86,0.00,,,0.00,Wunderground v.1.15,2013-04-04 05:01:00,
2013-04-04 01:06:00,68.4,64.0,29.87,NNE,24,0.0,0.0,86,0.00,,,0.00,Wunderground v.1.15,2013-04-04 05:06:00,
2013-04-04 01:11:00,68.4,64.0,29.87,NNE,24,0.0,0.0,86,0.00,,,0.00,Wunderground v.1.15,2013-04-04 05:11:00,
2013-04-04 01:17:00,68.3,63.9,29.88,NNE,24,0.0,0.0,86,0.00,,,0.00,Wunderground v.1.15,2013-04-04 05:17:00,
2013-04-04 01:23:00,68.3,63.9,29.88,NNE,24,0.0,0.0,86,0.00,,,0.00,Wunderground v.1.15,2013-04-04 05:23:00,
2013-04-04 01:28:00,68.3,63.9,29.88,NNE,24,0.0,0.0,86,0.00,,,0.00,Wunderground v.1.15,2013-04-04 05:28:00,
2013-04-04 01:34:00,68.3,64.3,29.89,NNE,24,0.0,0.0,87,0.00,,,0.00,Wunderground v.1.15,2013-04-04 05:34:00,
2013-04-04 01:39:00,68.1,64.1,29.89,NNE,24,0.0,0.0,87,0.00,,,0.00,Wunderground v.1.15,2013-04-04 05:39:00,
2013-04-04 01:44:00,67.9,63.9,29.89,SSE,155,0.0,1.0,87,0.00,,,0.00,Wunderground v.1.15,2013-04-04 05:44:00,
2013-04-04 01:50:00,67.9,63.9,29.87,SSE,155,0.0,2.0,87,0.00,,,0.00,Wunderground v.1.15,2013-04-04 05:50:00,
2013-04-04 01:55:00,67.8,63.8,29.87,SSE,167,0.0,2.0,87,0.00,,,0.00,Wunderground v.1.15,2013-04-04 05:55:00,
2013-04-04 02:00:00,67.8,63.8,29.86,SSE,165,0.0,1.0,87,0.00,,,0.00,Wunderground v.1.15,2013-04-04 06:00:00,
2013-04-04 02:05:00,67.8,63.8,29.86,SSE,165,0.0,1.0,87,0.00,,,0.00,Wunderground v.1.15,2013-04-04 06:05:00,
2013-04-04 02:10:00,67.8,63.8,29.86,SSE,165,0.0,0.0,87,0.00,,,0.00,Wunderground v.1.15,2013-04-04 06:10:00,
2013-04-04 02:15:00,67.8,64.1,29.87,SSE,165,0.0,0.0,88,0.00,,,0.00,Wunderground v.1.15,2013-04-04 06:15:00,
2013-04-04 02:20:00,67.9,64.2,29.87,SSE,165,0.0,0.0,88,0.00,,,0.00,Wunderground v.1.15,2013-04-04 06:20:00,
2013-04-04 02:25:00,67.9,64.2,29.87,SSE,165,0.0,4.0,88,0.00,,,0.00,Wunderground v.1.15,2013-04-04 06:25:00,
2013-04-04 02:30:00,68.1,64.4,29.86,SSE,162,2.0,7.0,88,0.00,,,0.00,Wunderground v.1.15,2013-04-04 06:30:00,
2013-04-04 02:35:00,68.3,64.6,29.86,SSE,155,3.0,8.0,88,0.00,,,0.00,Wunderground v.1.15,2013-04-04 06:35:00,
2013-04-04 02:40:00,68.6,64.9,29.86,SSE,165,2.0,6.0,88,0.00,,,0.00,Wunderground v.1.15,2013-04-04 06:40:00,
2013-04-04 02:45:00,68.8,65.1,29.85,South,174,0.0,6.0,88,0.00,,,0.00,Wunderground v.1.15,2013-04-04 06:45:00,
2013-04-04 02:51:00,68.9,65.2,29.85,SSE,155,0.0,6.0,88,0.00,,,0.00,Wunderground v.1.15,2013-04-04 06:51:00,
2013-04-04 02:56:00,68.9,65.2,29.85,SSW,202,0.0,6.0,88,0.00,,,0.00,Wunderground v.1.15,2013-04-04 06:56:00,
2013-04-04 03:01:00,69.1,65.4,29.86,South,172,0.0,1.0,88,0.00,,,0.00,Wunderground v.1.15,2013-04-04 07:01:00,
2013-04-04 03:06:00,69.1,65.4,29.86,South,172,5.0,6.0,88,0.00,,,0.00,Wunderground v.1.15,2013-04-04 07:06:00,
2013-04-04 03:11:00,69.1,65.4,29.86,South,184,0.0,5.0,88,0.00,,,0.00,Wunderground v.1.15,2013-04-04 07:11:00,
2013-04-04 03:16:00,69.3,65.6,29.86,SSE,150,0.0,6.0,88,0.00,,,0.00,Wunderground v.1.15,2013-04-04 07:16:00,
2013-04-04 03:21:00,69.3,65.6,29.86,SSW,210,2.0,2.0,88,0.00,,,0.00,Wunderground v.1.15,2013-04-04 07:21:00,
2013-04-04 03:26:00,69.4,65.7,29.86,SSW,195,2.0,6.0,88,0.00,,,0.00,Wunderground v.1.15,2013-04-04 07:26:00,
2013-04-04 03:31:00,69.4,66.0,29.85,SE,133,2.0,6.0,89,0.00,,,0.01,Wunderground v.1.15,2013-04-04 07:31:00,
2013-04-04 03:36:00,69.6,66.2,29.85,SSW,203,5.0,7.0,89,0.00,,,0.01,Wunderground v.1.15,2013-04-04 07:36:00,
2013-04-04 03:42:00,69.8,66.4,29.85,South,184,0.0,4.0,89,0.00,,,0.01,Wunderground v.1.15,2013-04-04 07:42:00,
2013-04-04 03:47:00,69.9,66.5,29.84,South,171,0.0,10.0,89,0.00,,,0.01,Wunderground v.1.15,2013-04-04 07:47:00,
2013-04-04 03:52:00,70.1,66.7,29.84,South,181,0.0,8.0,89,0.00,,,0.01,Wunderground v.1.15,2013-04-04 07:52:00,
2013-04-04 03:57:00,70.3,66.9,29.84,SW,215,5.0,8.0,89,0.00,,,0.01,Wunderground v.1.15,2013-04-04 07:57:00,
2013-04-04 04:02:00,70.3,66.9,29.84,South,189,3.0,12.0,89,0.00,,,0.01,Wunderground v.1.15,2013-04-04 08:02:00,
2013-04-04 04:07:00,70.3,66.6,29.84,South,171,5.0,12.0,88,0.00,,,0.01,Wunderground v.1.15,2013-04-04 08:07:00,
2013-04-04 04:12:00,70.4,67.0,29.84,SSE,158,1.0,8.0,89,0.00,,,0.01,Wunderground v.1.15,2013-04-04 08:12:00,
2013-04-04 04:17:00,70.4,66.7,29.84,South,175,5.0,8.0,88,0.00,,,0.01,Wunderground v.1.15,2013-04-04 08:17:00,
2013-04-04 04:22:00,70.4,66.7,29.84,SSE,148,8.0,8.0,88,0.00,,,0.01,Wunderground v.1.15,2013-04-04 08:22:00,
2013-04-04 04:27:00,70.4,66.7,29.84,South,185,0.0,13.0,88,0.00,,,0.01,Wunderground v.1.15,2013-04-04 08:27:00,
2013-04-04 04:32:00,70.4,66.7,29.82,SSE,162,5.0,13.0,88,0.00,,,0.02,Wunderground v.1.15,2013-04-04 08:32:00,
2013-04-04 04:37:00,70.4,67.0,29.82,SSW,200,10.0,13.0,89,0.00,,,0.02,Wunderground v.1.15,2013-04-04 08:37:00,
2013-04-04 04:42:00,70.1,66.4,29.82,WSW,241,7.0,12.0,88,0.00,,,0.02,Wunderground v.1.15,2013-04-04 08:42:00,
2013-04-04 04:47:00,69.8,66.1,29.80,SSE,168,12.0,18.0,88,0.04,,,0.03,Wunderground v.1.15,2013-04-04 08:47:00,
2013-04-04 04:52:00,69.4,65.7,29.80,SSE,167,6.0,12.0,88,0.11,,,0.04,Wunderground v.1.15,2013-04-04 08:52:00,
2013-04-04 04:58:00,69.1,65.4,29.80,SSE,155,10.0,13.0,88,0.09,,,0.04,Wunderground v.1.15,2013-04-04 08:58:00,
2013-04-04 05:03:00,68.9,65.2,29.80,SE,144,3.0,12.0,88,0.05,,,0.04,Wunderground v.1.15,2013-04-04 09:03:00,
2013-04-04 05:08:00,68.9,65.2,29.80,SSE,157,3.0,12.0,88,0.04,,,0.04,Wunderground v.1.15,2013-04-04 09:08:00,
2013-04-04 05:13:00,68.9,65.5,29.80,SSE,155,6.0,7.0,89,0.00,,,0.04,Wunderground v.1.15,2013-04-04 09:13:00,
2013-04-04 05:18:00,69.1,65.7,29.81,SE,144,2.0,10.0,89,0.00,,,0.04,Wunderground v.1.15,2013-04-04 09:18:00,
2013-04-04 05:23:00,69.1,65.7,29.81,SE,127,0.0,6.0,89,0.00,,,0.04,Wunderground v.1.15,2013-04-04 09:23:00,
2013-04-04 05:28:00,69.3,65.9,29.81,SE,127,0.0,6.0,89,0.00,,,0.04,Wunderground v.1.15,2013-04-04 09:28:00,
2013-04-04 05:33:00,69.3,65.9,29.82,SSE,148,0.0,6.0,89,0.00,,,0.04,Wunderground v.1.15,2013-04-04 09:33:00,
2013-04-04 05:38:00,69.3,65.9,29.82,SE,137,0.0,7.0,89,0.00,,,0.04,Wunderground v.1.15,2013-04-04 09:38:00,
2013-04-04 05:43:00,69.4,66.0,29.82,SSE,147,1.0,7.0,89,0.00,,,0.04,Wunderground v.1.15,2013-04-04 09:43:00,
2013-04-04 05:48:00,69.6,66.2,29.81,SSE,147,0.0,10.0,89,0.00,,,0.04,Wunderground v.1.15,2013-04-04 09:48:00,
2013-04-04 05:53:00,69.6,66.2,29.81,SE,126,3.0,8.0,89,0.00,,,0.04,Wunderground v.1.15,2013-04-04 09:53:00,
2013-04-04 05:58:00,69.8,66.4,29.81,ESE,103,5.0,8.0,89,0.00,,,0.04,Wunderground v.1.15,2013-04-04 09:58:00,
2013-04-04 06:03:00,69.8,66.4,29.82,SE,140,0.0,6.0,89,0.00,,,0.04,Wunderground v.1.15,2013-04-04 10:03:00,
2013-04-04 06:08:00,69.9,66.5,29.82,SE,127,0.0,6.0,89,0.00,,,0.04,Wunderground v.1.15,2013-04-04 10:08:00,
2013-04-04 06:13:00,69.9,66.5,29.82,SE,138,0.0,12.0,89,0.00,,,0.04,Wunderground v.1.15,2013-04-04 10:13:00,
2013-04-04 06:18:00,69.9,66.5,29.81,ESE,123,8.0,12.0,89,0.00,,,0.04,Wunderground v.1.15,2013-04-04 10:18:00,
2013-04-04 06:23:00,69.9,66.5,29.81,South,179,0.0,11.0,89,0.00,,,0.04,Wunderground v.1.15,2013-04-04 10:23:00,
2013-04-04 06:28:00,69.9,66.5,29.81,ESE,117,7.0,14.0,89,0.00,,,0.04,Wunderground v.1.15,2013-04-04 10:28:00,
2013-04-04 06:33:00,69.8,66.4,29.81,SE,130,5.0,11.0,89,0.00,,,0.04,Wunderground v.1.15,2013-04-04 10:33:00,
2013-04-04 06:38:00,69.6,66.2,29.81,SSE,162,3.0,11.0,89,0.00,,,0.04,Wunderground v.1.15,2013-04-04 10:38:00,
2013-04-04 06:43:00,69.4,66.0,29.81,SSE,168,3.0,13.0,89,0.00,,,0.04,Wunderground v.1.15,2013-04-04 10:43:00,
2013-04-04 06:48:00,69.3,65.9,29.81,SSE,158,3.0,13.0,89,0.00,,,0.04,Wunderground v.1.15,2013-04-04 10:48:00,
2013-04-04 06:53:00,69.1,65.7,29.81,South,185,0.0,7.0,89,0.00,,,0.04,Wunderground v.1.15,2013-04-04 10:53:00,
2013-04-04 06:58:00,68.9,65.5,29.81,ESE,121,5.0,13.0,89,0.00,,,0.04,Wunderground v.1.15,2013-04-04 10:58:00,
2013-04-04 07:03:00,68.8,65.4,29.83,SSE,158,3.0,10.0,89,0.00,,,0.04,Wunderground v.1.15,2013-04-04 11:03:00,
2013-04-04 07:08:00,68.8,65.4,29.83,SSE,158,2.0,10.0,89,0.00,,,0.04,Wunderground v.1.15,2013-04-04 11:08:00,
2013-04-04 07:13:00,68.8,65.1,29.83,SE,136,4.0,9.0,88,0.00,,,0.04,Wunderground v.1.15,2013-04-04 11:13:00,
2013-04-04 07:18:00,68.8,65.1,29.82,SSE,164,0.0,9.0,88,0.00,,,0.04,Wunderground v.1.15,2013-04-04 11:18:00,
2013-04-04 07:23:00,68.8,65.4,29.82,SSE,152,3.0,12.0,89,0.00,,,0.04,Wunderground v.1.15,2013-04-04 11:23:00,
2013-04-04 07:28:00,68.9,65.5,29.82,SSE,157,7.0,16.0,89,0.00,,,0.04,Wunderground v.1.15,2013-04-04 11:28:00,
2013-04-04 07:33:00,69.1,65.7,29.80,SSE,162,6.0,12.0,89,0.00,,,0.04,Wunderground v.1.15,2013-04-04 11:33:00,
2013-04-04 07:38:00,69.3,65.9,29.80,SE,137,0.0,12.0,89,0.00,,,0.04,Wunderground v.1.15,2013-04-04 11:38:00,
2013-04-04 07:43:00,69.6,66.2,29.80,SSE,157,4.0,14.0,89,0.00,,,0.04,Wunderground v.1.15,2013-04-04 11:43:00,
2013-04-04 07:48:00,69.9,66.5,29.81,SE,140,8.0,14.0,89,0.00,,,0.04,Wunderground v.1.15,2013-04-04 11:48:00,
2013-04-04 07:53:00,70.1,66.7,29.81,SSE,160,3.0,8.0,89,0.00,,,0.04,Wunderground v.1.15,2013-04-04 11:53:00,
2013-04-04 07:58:00,70.1,66.7,29.81,South,176,2.0,9.0,89,0.00,,,0.04,Wunderground v.1.15,2013-04-04 11:58:00,
2013-04-04 08:03:00,70.1,66.7,29.83,SE,131,3.0,8.0,89,0.00,,,0.04,Wunderground v.1.15,2013-04-04 12:03:00,
2013-04-04 08:08:00,70.1,66.7,29.83,South,169,2.0,8.0,89,0.00,,,0.04,Wunderground v.1.15,2013-04-04 12:08:00,
2013-04-04 08:13:00,70.1,66.7,29.83,SSE,152,1.0,9.0,89,0.00,,,0.04,Wunderground v.1.15,2013-04-04 12:13:00,
2013-04-04 08:18:00,70.1,66.7,29.82,South,171,3.0,9.0,89,0.00,,,0.05,Wunderground v.1.15,2013-04-04 12:18:00,
2013-04-04 08:23:00,70.1,66.7,29.82,SE,124,0.0,12.0,89,0.00,,,0.05,Wunderground v.1.15,2013-04-04 12:23:00,
2013-04-04 08:28:00,70.1,66.7,29.82,ESE,113,2.0,12.0,89,0.00,,,0.05,Wunderground v.1.15,2013-04-04 12:28:00,
2013-04-04 08:33:00,70.1,66.7,29.83,ESE,117,0.0,3.0,89,0.00,,,0.05,Wunderground v.1.15,2013-04-04 12:33:00,
2013-04-04 08:39:00,70.1,66.7,29.83,SE,140,0.0,5.0,89,0.00,,,0.05,Wunderground v.1.15,2013-04-04 12:39:00,
2013-04-04 08:44:00,70.1,66.7,29.83,South,172,3.0,6.0,89,0.00,,,0.05,Wunderground v.1.15,2013-04-04 12:44:00,
2013-04-04 08:49:00,70.1,66.7,29.84,SSE,147,2.0,2.0,89,0.00,,,0.05,Wunderground v.1.15,2013-04-04 12:49:00,
2013-04-04 08:54:00,70.1,66.7,29.84,SSE,157,6.0,7.0,89,0.00,,,0.05,Wunderground v.1.15,2013-04-04 12:54:00,
2013-04-04 08:59:00,70.1,66.7,29.84,SSE,158,4.0,4.0,89,0.00,,,0.05,Wunderground v.1.15,2013-04-04 12:59:00,
2013-04-04 09:04:00,70.3,66.9,29.84,SE,134,7.0,10.0,89,0.00,,,0.05,Wunderground v.1.15,2013-04-04 13:04:00,
2013-04-04 09:09:00,70.3,66.9,29.84,SSE,164,7.0,7.0,89,0.00,,,0.05,Wunderground v.1.15,2013-04-04 13:09:00,
2013-04-04 09:14:00,70.4,67.0,29.84,SE,134,0.0,7.0,89,0.00,,,0.05,Wunderground v.1.15,2013-04-04 13:14:00,
2013-04-04 09:19:00,70.4,67.0,29.85,SSE,147,4.0,5.0,89,0.00,,,0.05,Wunderground v.1.15,2013-04-04 13:19:00,
2013-04-04 09:24:00,70.6,67.2,29.85,SE,131,0.0,9.0,89,0.00,,,0.05,Wunderground v.1.15,2013-04-04 13:24:00,
2013-04-04 09:29:00,70.8,67.4,29.85,SE,140,0.0,2.0,89,0.00,,,0.05,Wunderground v.1.15,2013-04-04 13:29:00,
2013-04-04 09:34:00,70.8,67.4,29.86,East,79,0.0,7.0,89,0.00,,,0.05,Wunderground v.1.15,2013-04-04 13:34:00,
2013-04-04 09:39:00,70.9,67.5,29.86,South,178,0.0,2.0,89,0.00,,,0.05,Wunderground v.1.15,2013-04-04 13:39:00,
2013-04-04 09:44:00,70.9,67.5,29.86,SSE,160,0.0,11.0,89,0.00,,,0.05,Wunderground v.1.15,2013-04-04 13:44:00,
2013-04-04 09:50:00,71.1,67.7,29.85,SSE,165,2.0,5.0,89,0.00,,,0.05,Wunderground v.1.15,2013-04-04 13:50:00,
2013-04-04 09:55:00,71.3,67.9,29.85,South,172,4.0,7.0,89,0.00,,,0.05,Wunderground v.1.15,2013-04-04 13:55:00,
2013-04-04 10:00:00,71.3,67.9,29.85,SE,127,0.0,2.0,89,0.00,,,0.05,Wunderground v.1.15,2013-04-04 14:00:00,
2013-04-04 10:05:00,71.5,68.1,29.85,SSE,155,7.0,7.0,89,0.00,,,0.05,Wunderground v.1.15,2013-04-04 14:05:00,
2013-04-04 10:10:00,71.5,68.1,29.85,SSE,167,0.0,1.0,89,0.00,,,0.05,Wunderground v.1.15,2013-04-04 14:10:00,
2013-04-04 10:15:00,71.5,68.1,29.87,South,186,6.0,7.0,89,0.00,,,0.05,Wunderground v.1.15,2013-04-04 14:15:00,
2013-04-04 10:20:00,71.5,68.1,29.87,SW,217,3.0,6.0,89,0.00,,,0.05,Wunderground v.1.15,2013-04-04 14:20:00,
2013-04-04 10:25:00,71.5,68.1,29.87,SSE,160,0.0,7.0,89,0.00,,,0.05,Wunderground v.1.15,2013-04-04 14:25:00,
2013-04-04 10:30:00,71.5,68.1,29.87,SE,144,0.0,2.0,89,0.00,,,0.05,Wunderground v.1.15,2013-04-04 14:30:00,
2013-04-04 10:35:00,71.5,68.1,29.87,SSE,161,0.0,5.0,89,0.00,,,0.05,Wunderground v.1.15,2013-04-04 14:35:00,
2013-04-04 10:40:00,71.5,67.8,29.87,SSE,160,2.0,4.0,88,0.00,,,0.05,Wunderground v.1.15,2013-04-04 14:40:00,
2013-04-04 10:45:00,71.5,67.8,29.88,ESE,120,3.0,4.0,88,0.00,,,0.05,Wunderground v.1.15,2013-04-04 14:45:00,
2013-04-04 10:50:00,71.5,67.8,29.88,SSW,198,0.0,4.0,88,0.00,,,0.05,Wunderground v.1.15,2013-04-04 14:50:00,
2013-04-04 10:55:00,71.5,67.8,29.88,SSE,161,2.0,7.0,88,0.00,,,0.05,Wunderground v.1.15,2013-04-04 14:55:00,
2013-04-04 11:00:00,71.3,67.6,29.89,SSE,152,0.0,1.0,88,0.00,,,0.05,Wunderground v.1.15,2013-04-04 15:00:00,
2013-04-04 11:05:00,71.3,67.6,29.89,SSE,157,0.0,3.0,88,0.00,,,0.05,Wunderground v.1.15,2013-04-04 15:05:00,
2013-04-04 11:10:00,71.5,67.8,29.89,South,189,0.0,0.0,88,0.00,,,0.05,Wunderground v.1.15,2013-04-04 15:10:00,
2013-04-04 11:15:00,71.5,67.8,29.90,SSW,196,0.0,1.0,88,0.00,,,0.05,Wunderground v.1.15,2013-04-04 15:15:00,
2013-04-04 11:20:00,71.5,68.1,29.90,SW,217,0.0,0.0,89,0.00,,,0.05,Wunderground v.1.15,2013-04-04 15:20:00,
2013-04-04 11:25:00,71.5,67.8,29.90,SW,217,0.0,1.0,88,0.00,,,0.05,Wunderground v.1.15,2013-04-04 15:25:00,
2013-04-04 11:31:00,71.5,68.1,29.90,SSE,155,6.0,6.0,89,0.00,,,0.05,Wunderground v.1.15,2013-04-04 15:31:00,
2013-04-04 11:36:00,71.5,68.1,29.90,SW,222,2.0,8.0,89,0.00,,,0.06,Wunderground v.1.15,2013-04-04 15:36:00,
2013-04-04 11:41:00,71.5,68.1,29.90,South,174,0.0,1.0,89,0.00,,,0.06,Wunderground v.1.15,2013-04-04 15:41:00,
2013-04-04 11:46:00,71.5,68.1,29.90,South,174,0.0,1.0,89,0.00,,,0.06,Wunderground v.1.15,2013-04-04 15:46:00,
2013-04-04 11:51:00,71.5,68.1,29.90,South,169,0.0,2.0,89,0.00,,,0.06,Wunderground v.1.15,2013-04-04 15:51:00,
2013-04-04 11:57:00,71.3,67.9,29.90,SSE,150,4.0,8.0,89,0.00,,,0.06,Wunderground v.1.15,2013-04-04 15:57:00,
2013-04-04 12:02:00,71.3,67.9,29.90,SSE,167,0.0,1.0,89,0.00,,,0.07,Wunderground v.1.15,2013-04-04 16:02:00,
2013-04-04 12:07:00,71.3,67.9,29.90,SSW,198,2.0,7.0,89,0.10,,,0.07,Wunderground v.1.15,2013-04-04 16:07:00,
2013-04-04 12:12:00,71.3,67.9,29.90,SSE,151,2.0,11.0,89,0.10,,,0.08,Wunderground v.1.15,2013-04-04 16:12:00,
2013-04-04 12:17:00,71.1,67.7,29.92,SSE,157,0.0,17.0,89,0.09,,,0.09,Wunderground v.1.15,2013-04-04 16:17:00,
2013-04-04 12:22:00,70.9,67.5,29.92,SSW,213,2.0,7.0,89,0.12,,,0.10,Wunderground v.1.15,2013-04-04 16:22:00,
2013-04-04 12:27:00,70.8,67.4,29.92,South,179,3.0,10.0,89,0.08,,,0.11,Wunderground v.1.15,2013-04-04 16:27:00,
2013-04-04 12:32:00,70.6,67.2,29.92,SE,143,5.0,6.0,89,0.10,,,0.12,Wunderground v.1.15,2013-04-04 16:32:00,
2013-04-04 12:37:00,70.4,67.0,29.92,SSW,195,5.0,8.0,89,0.10,,,0.12,Wunderground v.1.15,2013-04-04 16:37:00,
2013-04-04 12:42:00,70.3,66.9,29.92,SSW,195,5.0,10.0,89,0.19,,,0.14,Wunderground v.1.15,2013-04-04 16:42:00,
2013-04-04 12:48:00,69.9,66.5,29.93,South,181,1.0,10.0,89,0.16,,,0.15,Wunderground v.1.15,2013-04-04 16:48:00,
2013-04-04 12:53:00,69.6,66.2,29.93,SSE,155,0.0,3.0,89,0.08,,,0.16,Wunderground v.1.15,2013-04-04 16:53:00,
2013-04-04 12:58:00,69.3,65.9,29.93,SSE,165,0.0,7.0,89,0.30,,,0.19,Wunderground v.1.15,2013-04-04 16:58:00,
2013-04-04 13:03:00,68.9,65.5,29.92,SSE,162,0.0,7.0,89,0.21,,,0.20,Wunderground v.1.15,2013-04-04 17:03:00,
2013-04-04 13:08:00,68.6,65.2,29.92,SSE,162,7.0,7.0,89,0.17,,,0.22,Wunderground v.1.15,2013-04-04 17:08:00,
2013-04-04 13:13:00,68.3,64.9,29.92,SE,141,3.0,4.0,89,0.18,,,0.23,Wunderground v.1.15,2013-04-04 17:13:00,
2013-04-04 13:18:00,68.3,65.3,29.90,SSE,168,0.0,4.0,90,0.16,,,0.25,Wunderground v.1.15,2013-04-04 17:18:00,
2013-04-04 13:23:00,68.1,65.1,29.90,SE,144,0.0,7.0,90,0.17,,,0.26,Wunderground v.1.15,2013-04-04 17:23:00,
2013-04-04 13:28:00,67.9,64.9,29.90,SSE,158,0.0,7.0,90,0.11,,,0.27,Wunderground v.1.15,2013-04-04 17:28:00,
2013-04-04 13:33:00,67.9,64.9,29.90,SE,130,1.0,6.0,90,0.21,,,0.29,Wunderground v.1.15,2013-04-04 17:33:00,
2013-04-04 13:38:00,67.8,64.8,29.90,SE,131,0.0,6.0,90,0.12,,,0.30,Wunderground v.1.15,2013-04-04 17:38:00,
2013-04-04 13:43:00,67.8,64.8,29.90,ESE,119,0.0,8.0,90,0.16,,,0.31,Wunderground v.1.15,2013-04-04 17:43:00,
2013-04-04 13:48:00,67.6,64.6,29.90,SE,124,2.0,8.0,90,0.33,,,0.34,Wunderground v.1.15,2013-04-04 17:48:00,
2013-04-04 13:53:00,67.4,64.4,29.90,SE,140,0.0,10.0,90,0.26,,,0.36,Wunderground v.1.15,2013-04-04 17:53:00,
2013-04-04 13:58:00,67.4,64.4,29.90,SE,126,5.0,12.0,90,0.15,,,0.37,Wunderground v.1.15,2013-04-04 17:58:00,
2013-04-04 14:03:00,67.3,64.3,29.88,SSE,151,3.0,14.0,90,0.07,,,0.37,Wunderground v.1.15,2013-04-04 18:03:00,
2013-04-04 14:08:00,67.3,64.3,29.88,SE,141,0.0,14.0,90,0.06,,,0.38,Wunderground v.1.15,2013-04-04 18:08:00,
2013-04-04 14:13:00,67.3,64.3,29.88,SSE,158,0.0,9.0,90,0.09,,,0.39,Wunderground v.1.15,2013-04-04 18:13:00,
2013-04-04 14:18:00,67.3,64.6,29.89,SSE,165,2.0,9.0,91,0.08,,,0.39,Wunderground v.1.15,2013-04-04 18:18:00,
2013-04-04 14:23:00,67.3,64.6,29.89,SSE,164,0.0,10.0,91,0.05,,,0.39,Wunderground v.1.15,2013-04-04 18:23:00,
2013-04-04 14:28:00,67.1,64.4,29.89,SE,145,0.0,10.0,91,0.04,,,0.40,Wunderground v.1.15,2013-04-04 18:28:00,
2013-04-04 14:33:00,67.1,64.4,29.88,SE,130,3.0,7.0,91,0.04,,,0.40,Wunderground v.1.15,2013-04-04 18:33:00,
2013-04-04 14:39:00,66.9,64.2,29.88,SE,140,5.0,11.0,91,0.04,,,0.40,Wunderground v.1.15,2013-04-04 18:39:00,
2013-04-04 14:44:00,66.9,64.2,29.88,ESE,121,0.0,7.0,91,0.00,,,0.40,Wunderground v.1.15,2013-04-04 18:44:00,
2013-04-04 14:49:00,66.9,64.2,29.85,SE,143,6.0,6.0,91,0.00,,,0.40,Wunderground v.1.15,2013-04-04 18:49:00,
2013-04-04 14:54:00,67.1,64.4,29.85,SE,124,3.0,8.0,91,0.00,,,0.40,Wunderground v.1.15,2013-04-04 18:54:00,
2013-04-04 14:59:00,67.1,64.4,29.85,SE,140,7.0,7.0,91,0.00,,,0.40,Wunderground v.1.15,2013-04-04 18:59:00,
2013-04-04 15:04:00,67.1,64.4,29.82,SE,145,6.0,17.0,91,0.00,,,0.40,Wunderground v.1.15,2013-04-04 19:04:00,
2013-04-04 15:09:00,67.1,64.4,29.82,SE,126,0.0,5.0,91,0.00,,,0.40,Wunderground v.1.15,2013-04-04 19:09:00,
2013-04-04 15:14:00,67.1,64.4,29.82,SE,143,5.0,10.0,91,0.00,,,0.40,Wunderground v.1.15,2013-04-04 19:14:00,
2013-04-04 15:19:00,67.1,64.4,29.83,SE,141,7.0,7.0,91,0.00,,,0.40,Wunderground v.1.15,2013-04-04 19:19:00,
2013-04-04 15:25:00,67.1,64.4,29.83,South,172,0.0,8.0,91,0.00,,,0.40,Wunderground v.1.15,2013-04-04 19:25:00,
2013-04-04 15:30:00,67.1,64.4,29.82,SSE,150,0.0,4.0,91,0.00,,,0.40,Wunderground v.1.15,2013-04-04 19:30:00,
2013-04-04 15:35:00,67.1,64.4,29.82,SSE,162,6.0,10.0,91,0.00,,,0.40,Wunderground v.1.15,2013-04-04 19:35:00,
2013-04-04 15:40:00,66.9,64.2,29.82,SSE,150,5.0,13.0,91,0.00,,,0.40,Wunderground v.1.15,2013-04-04 19:40:00,
2013-04-04 15:45:00,66.9,64.2,29.79,SE,131,2.0,13.0,91,0.00,,,0.40,Wunderground v.1.15,2013-04-04 19:45:00,
2013-04-04 15:50:00,67.1,64.4,29.79,SE,136,3.0,5.0,91,0.00,,,0.40,Wunderground v.1.15,2013-04-04 19:50:00,
2013-04-04 15:55:00,67.4,64.7,29.79,ESE,103,0.0,7.0,91,0.00,,,0.40,Wunderground v.1.15,2013-04-04 19:55:00,
2013-04-04 16:00:00,67.6,64.9,29.79,SE,143,0.0,3.0,91,0.00,,,0.40,Wunderground v.1.15,2013-04-04 20:00:00,
2013-04-04 16:05:00,67.8,65.1,29.79,SSE,165,9.0,11.0,91,0.00,,,0.40,Wunderground v.1.15,2013-04-04 20:05:00,
2013-04-04 16:10:00,67.8,64.8,29.79,SE,138,6.0,6.0,90,0.00,,,0.40,Wunderground v.1.15,2013-04-04 20:10:00,
2013-04-04 16:15:00,67.8,64.8,29.80,SSE,147,10.0,14.0,90,0.00,,,0.40,Wunderground v.1.15,2013-04-04 20:15:00,
2013-04-04 16:20:00,67.8,64.8,29.80,South,184,5.0,7.0,90,0.00,,,0.40,Wunderground v.1.15,2013-04-04 20:20:00,
2013-04-04 16:25:00,67.9,64.9,29.80,ESE,106,3.0,11.0,90,0.00,,,0.40,Wunderground v.1.15,2013-04-04 20:25:00,
2013-04-04 16:30:00,68.1,65.1,29.79,SE,128,0.0,10.0,90,0.00,,,0.40,Wunderground v.1.15,2013-04-04 20:30:00,
2013-04-04 16:35:00,68.4,65.4,29.79,SSE,155,3.0,10.0,90,0.00,,,0.40,Wunderground v.1.15,2013-04-04 20:35:00,
2013-04-04 16:40:00,68.6,65.2,29.79,SE,124,2.0,5.0,89,0.00,,,0.40,Wunderground v.1.15,2013-04-04 20:40:00,
2013-04-04 16:46:00,68.9,65.5,29.78,ESE,117,4.0,7.0,89,0.00,,,0.40,Wunderground v.1.15,2013-04-04 20:46:00,
2013-04-04 16:51:00,68.9,65.2,29.78,SE,138,1.0,3.0,88,0.00,,,0.40,Wunderground v.1.15,2013-04-04 20:51:00,
2013-04-04 16:56:00,69.1,65.4,29.78,SE,138,3.0,7.0,88,0.00,,,0.40,Wunderground v.1.15,2013-04-04 20:56:00,
2013-04-04 17:01:00,69.3,65.6,29.77,East,97,0.0,6.0,88,0.00,,,0.40,Wunderground v.1.15,2013-04-04 21:01:00,
2013-04-04 17:06:00,69.9,65.9,29.77,South,186,3.0,8.0,87,0.00,,,0.40,Wunderground v.1.15,2013-04-04 21:06:00,
2013-04-04 17:11:00,70.3,65.9,29.77,SSE,147,0.0,8.0,86,0.00,,,0.40,Wunderground v.1.15,2013-04-04 21:11:00,
2013-04-04 17:16:00,70.6,65.9,29.77,SSE,147,5.0,11.0,85,0.00,,,0.40,Wunderground v.1.15,2013-04-04 21:16:00,
2013-04-04 17:21:00,70.9,65.8,29.77,East,88,2.0,8.0,84,0.00,,,0.40,Wunderground v.1.15,2013-04-04 21:21:00,
2013-04-04 17:26:00,71.1,66.0,29.77,ESE,107,0.0,8.0,84,0.00,,,0.40,Wunderground v.1.15,2013-04-04 21:26:00,
2013-04-04 17:31:00,71.1,65.7,29.78,NE,51,6.0,6.0,83,0.00,,,0.40,Wunderground v.1.15,2013-04-04 21:31:00,
2013-04-04 17:36:00,71.3,65.9,29.78,ESE,120,2.0,7.0,83,0.00,,,0.40,Wunderground v.1.15,2013-04-04 21:36:00,
2013-04-04 17:41:00,71.5,65.7,29.78,SE,137,3.0,7.0,82,0.00,,,0.40,Wunderground v.1.15,2013-04-04 21:41:00,
2013-04-04 17:46:00,71.5,65.4,29.78,SE,145,0.0,8.0,81,0.00,,,0.40,Wunderground v.1.15,2013-04-04 21:46:00,
2013-04-04 17:51:00,71.5,65.4,29.78,SSE,164,4.0,10.0,81,0.00,,,0.40,Wunderground v.1.15,2013-04-04 21:51:00,
2013-04-04 17:56:00,71.5,65.4,29.78,South,171,7.0,10.0,81,0.00,,,0.40,Wunderground v.1.15,2013-04-04 21:56:00,
2013-04-04 18:01:00,71.6,65.5,29.78,SE,131,0.0,3.0,81,0.00,,,0.40,Wunderground v.1.15,2013-04-04 22:01:00,
2013-04-04 18:06:00,71.6,65.5,29.78,South,171,0.0,4.0,81,0.00,,,0.40,Wunderground v.1.15,2013-04-04 22:06:00,
2013-04-04 18:11:00,71.6,65.5,29.78,South,172,0.0,1.0,81,0.00,,,0.40,Wunderground v.1.15,2013-04-04 22:11:00,
2013-04-04 18:16:00,71.6,65.5,29.78,South,182,2.0,3.0,81,0.00,,,0.40,Wunderground v.1.15,2013-04-04 22:16:00,
2013-04-04 18:22:00,71.6,65.5,29.78,South,181,0.0,1.0,81,0.00,,,0.40,Wunderground v.1.15,2013-04-04 22:22:00,
2013-04-04 18:27:00,71.6,65.5,29.78,South,182,0.0,1.0,81,0.00,,,0.40,Wunderground v.1.15,2013-04-04 22:27:00,
2013-04-04 18:32:00,71.5,65.4,29.78,South,181,0.0,0.0,81,0.00,,,0.40,Wunderground v.1.15,2013-04-04 22:32:00,
2013-04-04 18:37:00,71.5,65.4,29.78,East,90,0.0,1.0,81,0.00,,,0.40,Wunderground v.1.15,2013-04-04 22:37:00,
2013-04-04 18:42:00,71.3,65.2,29.78,East,90,0.0,0.0,81,0.00,,,0.40,Wunderground v.1.15,2013-04-04 22:42:00,
2013-04-04 18:47:00,71.3,65.2,29.77,East,90,0.0,0.0,81,0.00,,,0.40,Wunderground v.1.15,2013-04-04 22:47:00,
2013-04-04 18:52:00,71.3,65.2,29.77,East,90,0.0,0.0,81,0.00,,,0.40,Wunderground v.1.15,2013-04-04 22:52:00,
2013-04-04 18:57:00,71.3,65.2,29.77,East,90,0.0,0.0,81,0.00,,,0.40,Wunderground v.1.15,2013-04-04 22:57:00,
2013-04-04 19:02:00,71.3,65.2,29.76,East,90,0.0,0.0,81,0.00,,,0.40,Wunderground v.1.15,2013-04-04 23:02:00,
2013-04-04 19:07:00,71.1,65.0,29.76,East,90,0.0,0.0,81,0.00,,,0.40,Wunderground v.1.15,2013-04-04 23:07:00,
2013-04-04 19:12:00,71.1,65.0,29.76,East,90,0.0,0.0,81,0.00,,,0.40,Wunderground v.1.15,2013-04-04 23:12:00,
2013-04-04 19:17:00,70.9,64.8,29.77,East,90,0.0,0.0,81,0.00,,,0.40,Wunderground v.1.15,2013-04-04 23:17:00,
2013-04-04 19:22:00,70.9,65.1,29.77,East,90,0.0,0.0,82,0.00,,,0.40,Wunderground v.1.15,2013-04-04 23:22:00,
2013-04-04 19:27:00,70.9,65.1,29.77,East,90,0.0,0.0,82,0.00,,,0.40,Wunderground v.1.15,2013-04-04 23:27:00,
2013-04-04 19:32:00,70.8,65.0,29.78,East,90,0.0,0.0,82,0.00,,,0.40,Wunderground v.1.15,2013-04-04 23:32:00,
2013-04-04 19:37:00,70.8,65.0,29.78,East,90,0.0,0.0,82,0.00,,,0.40,Wunderground v.1.15,2013-04-04 23:37:00,
2013-04-04 19:42:00,70.4,64.6,29.78,East,90,0.0,0.0,82,0.00,,,0.40,Wunderground v.1.15,2013-04-04 23:42:00,
2013-04-04 19:47:00,70.3,64.5,29.80,East,90,0.0,0.0,82,0.00,,,0.40,Wunderground v.1.15,2013-04-04 23:47:00,
2013-04-04 19:52:00,70.1,64.3,29.80,East,90,0.0,0.0,82,0.00,,,0.40,Wunderground v.1.15,2013-04-04 23:52:00,
2013-04-04 19:57:00,69.9,64.2,29.80,East,90,0.0,0.0,82,0.00,,,0.40,Wunderground v.1.15,2013-04-04 23:57:00,
2013-04-04 20:02:00,69.9,64.2,29.81,East,90,0.0,0.0,82,0.00,,,0.40,Wunderground v.1.15,2013-04-05 00:02:00,
2013-04-04 20:07:00,69.6,63.9,29.81,East,90,0.0,0.0,82,0.00,,,0.40,Wunderground v.1.15,2013-04-05 00:07:00,
2013-04-04 20:12:00,69.4,63.7,29.81,East,90,0.0,0.0,82,0.00,,,0.40,Wunderground v.1.15,2013-04-05 00:12:00,
2013-04-04 20:17:00,69.3,63.6,29.78,East,90,0.0,0.0,82,0.00,,,0.40,Wunderground v.1.15,2013-04-05 00:17:00,
2013-04-04 20:22:00,69.3,63.9,29.78,East,90,0.0,0.0,83,0.00,,,0.40,Wunderground v.1.15,2013-04-05 00:22:00,
2013-04-04 20:27:00,69.1,63.7,29.78,East,90,0.0,0.0,83,0.00,,,0.40,Wunderground v.1.15,2013-04-05 00:27:00,
2013-04-04 20:32:00,69.1,63.7,29.80,East,90,0.0,0.0,83,0.00,,,0.40,Wunderground v.1.15,2013-04-05 00:32:00,
2013-04-04 20:37:00,68.9,63.5,29.80,East,90,0.0,0.0,83,0.00,,,0.40,Wunderground v.1.15,2013-04-05 00:37:00,
2013-04-04 20:42:00,68.9,63.5,29.80,East,90,0.0,0.0,83,0.00,,,0.40,Wunderground v.1.15,2013-04-05 00:42:00,
2013-04-04 20:48:00,68.8,63.4,29.82,East,90,0.0,0.0,83,0.00,,,0.40,Wunderground v.1.15,2013-04-05 00:48:00,
2013-04-04 20:53:00,68.8,63.8,29.82,East,90,0.0,0.0,84,0.00,,,0.40,Wunderground v.1.15,2013-04-05 00:53:00,
2013-04-04 20:58:00,68.6,63.6,29.82,East,90,0.0,0.0,84,0.00,,,0.40,Wunderground v.1.15,2013-04-05 00:58:00,
2013-04-04 21:03:00,68.6,63.6,29.81,East,90,0.0,0.0,84,0.00,,,0.40,Wunderground v.1.15,2013-04-05 01:03:00,
2013-04-04 21:08:00,68.4,63.4,29.81,East,90,0.0,0.0,84,0.00,,,0.40,Wunderground v.1.15,2013-04-05 01:08:00,
2013-04-04 21:13:00,68.4,63.4,29.81,East,90,0.0,0.0,84,0.00,,,0.40,Wunderground v.1.15,2013-04-05 01:13:00,
2013-04-04 21:18:00,68.4,63.4,29.81,East,90,0.0,0.0,84,0.00,,,0.40,Wunderground v.1.15,2013-04-05 01:18:00,
2013-04-04 21:23:00,68.4,63.4,29.81,East,90,0.0,0.0,84,0.00,,,0.40,Wunderground v.1.15,2013-04-05 01:23:00,
2013-04-04 21:28:00,68.4,63.4,29.81,East,90,0.0,0.0,84,0.00,,,0.40,Wunderground v.1.15,2013-04-05 01:28:00,
2013-04-04 21:33:00,68.4,63.7,29.81,East,90,0.0,0.0,85,0.00,,,0.40,Wunderground v.1.15,2013-04-05 01:33:00,
2013-04-04 21:38:00,68.4,63.7,29.81,East,90,0.0,0.0,85,0.00,,,0.40,Wunderground v.1.15,2013-04-05 01:38:00,
2013-04-04 21:43:00,68.4,63.7,29.81,East,90,0.0,0.0,85,0.00,,,0.40,Wunderground v.1.15,2013-04-05 01:43:00,
2013-04-04 21:48:00,68.4,63.7,29.81,NNW,340,0.0,0.0,85,0.00,,,0.40,Wunderground v.1.15,2013-04-05 01:48:00,
2013-04-04 21:53:00,68.4,63.7,29.81,NNW,340,0.0,0.0,85,0.00,,,0.40,Wunderground v.1.15,2013-04-05 01:53:00,
2013-04-04 21:58:00,68.3,63.6,29.81,NNW,340,0.0,0.0,85,0.00,,,0.40,Wunderground v.1.15,2013-04-05 01:58:00,
2013-04-04 22:03:00,68.3,63.6,29.79,NNW,340,0.0,0.0,85,0.00,,,0.40,Wunderground v.1.15,2013-04-05 02:03:00,
2013-04-04 22:08:00,68.3,63.6,29.79,NNW,340,0.0,0.0,85,0.00,,,0.40,Wunderground v.1.15,2013-04-05 02:08:00,
2013-04-04 22:13:00,68.3,63.6,29.79,NNW,340,0.0,0.0,85,0.00,,,0.40,Wunderground v.1.15,2013-04-05 02:13:00,
2013-04-04 22:18:00,68.3,63.6,29.80,NNW,340,0.0,0.0,85,0.00,,,0.40,Wunderground v.1.15,2013-04-05 02:18:00,
2013-04-04 22:23:00,68.3,63.6,29.80,NNW,340,0.0,0.0,85,0.00,,,0.40,Wunderground v.1.15,2013-04-05 02:23:00,
2013-04-04 22:28:00,68.3,63.6,29.80,NNW,342,0.0,0.0,85,0.00,,,0.40,Wunderground v.1.15,2013-04-05 02:28:00,
2013-04-04 22:33:00,68.1,63.4,29.81,NNW,340,0.0,0.0,85,0.00,,,0.40,Wunderground v.1.15,2013-04-05 02:33:00,
2013-04-04 22:38:00,68.1,63.4,29.81,SE,128,0.0,0.0,85,0.00,,,0.40,Wunderground v.1.15,2013-04-05 02:38:00,
2013-04-04 22:43:00,68.1,63.4,29.81,SE,128,0.0,0.0,85,0.00,,,0.40,Wunderground v.1.15,2013-04-05 02:43:00,
2013-04-04 22:48:00,68.1,63.4,29.81,South,175,0.0,0.0,85,0.00,,,0.40,Wunderground v.1.15,2013-04-05 02:48:00,
2013-04-04 22:53:00,68.1,63.4,29.81,South,174,0.0,0.0,85,0.00,,,0.40,Wunderground v.1.15,2013-04-05 02:53:00,
2013-04-04 22:58:00,68.1,63.4,29.81,SE,141,1.0,3.0,85,0.00,,,0.40,Wunderground v.1.15,2013-04-05 02:58:00,
2013-04-04 23:03:00,67.9,63.2,29.81,SSE,157,0.0,2.0,85,0.00,,,0.40,Wunderground v.1.15,2013-04-05 03:03:00,
2013-04-04 23:08:00,67.9,63.2,29.81,SE,126,0.0,3.0,85,0.00,,,0.40,Wunderground v.1.15,2013-04-05 03:08:00,
2013-04-04 23:13:00,67.9,63.2,29.81,SE,136,0.0,2.0,85,0.00,,,0.40,Wunderground v.1.15,2013-04-05 03:13:00,
2013-04-04 23:18:00,67.9,63.2,29.80,SE,143,0.0,3.0,85,0.00,,,0.40,Wunderground v.1.15,2013-04-05 03:18:00,
2013-04-04 23:23:00,67.9,63.2,29.80,SSE,147,0.0,0.0,85,0.00,,,0.40,Wunderground v.1.15,2013-04-05 03:23:00,
2013-04-04 23:28:00,67.9,63.2,29.80,SSE,147,0.0,0.0,85,0.00,,,0.40,Wunderground v.1.15,2013-04-05 03:28:00,
2013-04-04 23:33:00,67.9,63.2,29.81,SSE,147,0.0,1.0,85,0.00,,,0.40,Wunderground v.1.15,2013-04-05 03:33:00,
2013-04-04 23:38:00,67.9,63.2,29.81,SE,140,2.0,7.0,85,0.00,,,0.40,Wunderground v.1.15,2013-04-05 03:38:00,
2013-04-04 23:43:00,67.8,63.5,29.81,South,191,0.0,7.0,86,0.00,,,0.40,Wunderground v.1.15,2013-04-05 03:43:00,
2013-04-04 23:48:00,67.8,63.5,29.79,SE,128,0.0,7.0,86,0.00,,,0.40,Wunderground v.1.15,2013-04-05 03:48:00,
2013-04-04 23:53:00,67.8,63.5,29.79,SSE,164,3.0,8.0,86,0.00,,,0.40,Wunderground v.1.15,2013-04-05 03:53:00,
2013-04-04 23:58:00,67.8,63.5,29.79,SSE,160,4.0,8.0,86,0.00,,,0.40,Wunderground v.1.15,2013-04-05 03:58:00,